Regional Weather Roundup
Issued by NWS

Home | Current Version | Previous Version | Graphics & Text | Print | Product List | Glossary On
Versions: 1 2 3 4 5 6 7 8 9 10 11 12 13 14 15 16 17 18 19 20 21 22 23 24 25 26 27 28 29 30 31 32 33 34 35 36 37 38 39 40 41 42 43 44 45 46 47 48 49 50
000
ASUS43 KLOT 240206
RWRIL

ILLINOIS REGIONAL WEATHER ROUNDUP
NATIONAL WEATHER SERVICE CHICAGO/ROMEOVILLE IL
900 PM CDT THU OCT 23 2014

NOTE: "FAIR" INDICATES FEW OR NO CLOUDS BELOW 12,000 FEET WITH NO
SIGNIFICANT WEATHER AND/OR OBSTRUCTIONS TO VISIBILITY.

* THESE STATIONS ARE NOT UNDER NWS QUALITY CONTROL. THEY ALSO MAY NOT
  REPORT WEATHER SUCH AS PRECIPITATION OR FOG.

ILZ001-002-007-009-015-016-024-240300-
NORTHWEST ILLINOIS

CITY           SKY/WX    TMP DP  RH WIND       PRES   REMARKS
MOLINE         CLOUDY    57  48  72 S6        30.05S
STERLING*      CLOUDY    54  45  71 S3        30.06S
SAVANNA*       CLOUDY    53  51  92 CALM      30.05S
$$

ILZ003-004-008-010-011-017-018-240300-
NORTH CENTRAL ILLINOIS

CITY           SKY/WX    TMP DP  RH WIND       PRES   REMARKS
ROCKFORD       CLOUDY    51  48  89 S3        30.09S
FREEPORT*      CLOUDY    51  47  88 S6        30.07S
ROCHELLE*      CLOUDY    50  48  90 CALM      30.07F
DE KALB*       LGT RAIN  50  44  81 S5        30.07F
PERU*          CLOUDY    55  45  67 S7        30.08S
$$

ILZ005-006-012>014-019>023-240300-
NORTHEAST ILLINOIS

CITY           SKY/WX    TMP DP  RH WIND       PRES   REMARKS
CHICAGO-OHARE  CLOUDY    55  42  61 S7        30.08R
CHICAGO-MIDWAY CLOUDY    57  42  57 SW8       30.09R
AURORA         CLOUDY    54  45  71 S3        30.08F
LANSING*       CLOUDY    52  43  71 S3        30.09F
JOLIET*        CLOUDY    55  43  64 S3        30.09S
WAUKEGAN       LGT RAIN  53  44  71 S6        30.06F
DUPAGE AIRPORT CLOUDY    55  44  66 S6        30.07F
KANKAKEE*      CLOUDY    51  43  75 CALM      30.10S
WHEELING       CLOUDY    55  43  63 S6        30.09S
MORRIS*        CLOUDY    54  45  71 S3        30.08R
ROMEOVILLE*    CLOUDY    54  43  66 S6        30.09R
NORTHERLY ISL    N/A     57  40  52 SW6         N/A
$$

LMZ740>746-240300-
SOUTHERN LAKE MICHIGAN

STATION/POSITION SKY/WX   TEMP    WIND        PRES    VSBY  WAVE
                          AIR SEA DIR/SP/G                  HT/PER
                          (F)     (DEG/KT/KT) (MB)    (MI)  (FT/S)
SOUTHERN BUOY              55 54  190/ 10/ 12 1019.1R         2/ 4
WAUKEGAN HARBOR            55     190/  3/  5   N/A
HARRISON CRIB              56     180/ 10/ 12   N/A
BURNHAM HARBOR             57     200/  6/  9   N/A
CALUMET HARBOR             56     170/  4/  7 1017.5R
MICHIGAN CITY              53     150/  7/ 11   N/A
$$

ILZ025>027-034>036-040-047-049-050-058-095>099-240300-
WEST-CENTRAL ILLINOIS

CITY           SKY/WX    TMP DP  RH WIND       PRES   REMARKS
QUINCY         CLEAR     53  50  89 S8        30.07R
GALESBURG*     MOCLDY    54  48  82 S3        30.07S
MACOMB*        PTCLDY    54  50  86 S3        30.09R
JACKSONVILLE*  CLOUDY    60  46  60 S6        30.08F
PITTSFIELD*    CLOUDY    57  51  79 S5        30.08F
$$

ILZ028>032-037-038-041>044-048-051>054-059>061-240300-
CENTRAL ILLINOIS

CITY           SKY/WX    TMP DP  RH WIND       PRES   REMARKS
PONTIAC        CLOUDY    55  45  70 S3        30.10S
BLOOMINGTON    MOCLDY    53  45  74 SW7       30.10F
DECATUR        MOCLDY    53  43  68 SW7       30.11R
PEORIA         CLOUDY    58  45  62 S9        30.08S
LACON*         CLOUDY    55  44  66 CALM      30.07S
LINCOLN*       CLOUDY    56  44  64 CALM      30.08S
SPRINGFIELD    CLOUDY    58  44  60 S6        30.10S
TAYLORVILLE    CLOUDY    54  45  71 S7        30.10S
$$

ILZ033-039-045-046-055>057-062-063-240300-
EAST-CENTRAL ILLINOIS

CITY           SKY/WX    TMP DP  RH WIND       PRES   REMARKS
CHAMPAIGN      PTCLDY    50  41  71 MISG      30.10S
DANVILLE*      CLOUDY    49  41  74 SE6       30.08F
RANTOUL*       CLOUDY    51  43  73 SW5       30.11R
MATTOON        PTCLDY    53  42  66 S5        30.11S
PARIS*         CLOUDY    48  44  85 S3        30.12F
$$

ILZ079-100>102-240300-
SOUTHWEST ILLINOIS

CITY           SKY/WX    TMP DP  RH WIND       PRES   REMARKS
ALTON          CLOUDY    57  43  58 S6        30.10F
BELLEVILLE     PTCLDY    54  46  76 VRB1      30.11R
CAHOKIA*       MOCLDY    57  46  66 S3        30.11S
SPARTA*        MOCLDY    54  46  74 SE5       30.12F
$$

ILZ064>066-069>071-074>076-080>082-084>086-088>090-092>094-240300-
SOUTH-CENTRAL ILLINOIS

CITY           SKY/WX    TMP DP  RH WIND       PRES   REMARKS
CARBONDALE     CLEAR     46  42  86 CALM      30.14S
CAIRO*         PTCLDY    49  44  83 CALM      30.15S
EFFINGHAM*     MOCLDY    50  41  71 S5        30.12F
MARION         PTCLDY    50  46  87 CALM      30.15S
MT. VERNON     PTCLDY    46  41  81 CALM      30.14S
CENTRALIA*     CLEAR     49  43  80 S3        30.13S
SALEM*         CLEAR     53  47  79 S3        30.13F
METROPOLIS*    MOCLDY    51  49  93 CALM      30.14S
$$

ILZ067-068-072-073-078-083-087-091-240300-
SOUTHEAST ILLINOIS

CITY           SKY/WX    TMP DP  RH WIND       PRES   REMARKS
LAWRENCEVILLE  CLOUDY    51  44  77 CALM      30.14R
FLORA*         CLOUDY    47  42  81 SW3       30.14S
FAIRFIELD*     CLOUDY    47  45  91 CALM      30.13S
HARRISBURG*    MOCLDY    46  45  96 CALM      30.16S
ROBINSON*      CLOUDY    49  45  87 S3        30.14F
CARMI*         CLOUDY    50  47  91 CALM      30.14S
$$

ABBREVIATIONS USED IN REMARKS
   TC - TEMPERATURE IN CELSIUS
  WCI - WIND CHILL INDEX
   HX - HEAT INDEX
  VSB - VISIBILITY
$$




USA.gov is the U.S. government's official web portal to all federal, state and local government web resources and services.